[[{"header":{"parameterUnit":"m.s-1","parameterCategory":1,"la1":30.2991,"la2":30.254,"lo1":-89.0895,"lo2":-89.0444,"dy":0.0017,"dx":0.0017,"nx":28,"ny":28,"refTime":"2023-09-16T09:00:00:Z","depth":0,"parameterNumber":2,"parameterNumberName":"U-component_of_WINDS"},"data":[0,0,0,0,0,0,0,0,0,0,0,0,0,0,0,0,0,0,0,0,0,0,0,0,0,0,0,0,0,0,0,0,0,0,0,0,0,0,0,0,0,0,0,0,0,0,0,0,0,0,0,0,0,0,0,0,0,0,2.9426,2.9427,0,2.9453,2.9453,2.9453,2.9374,2.9371,2.9369,2.9367,2.9394,2.9396,2.9399,0,0,0,0,0,0,0,0,0,0,0,0,0,2.9306,2.9309,2.9426,2.9427,2.9427,2.9453,2.9453,2.9453,2.9374,2.9371,2.9368,2.9366,2.9393,2.9396,2.94,0,0,0,0,0,0,0,0,0,0,0,0,0,2.9348,2.931,2.9426,2.9391,2.9388,2.9453,2.9453,2.9453,2.9375,2.9371,2.9368,2.9364,2.9391,2.9396,2.94,2.9501,0,0,2.9414,2.9416,0,0,0,0,0,0,0,0,2.9346,2.9353,2.9396,2.9393,2.939,2.9406,2.942,2.9469,2.9376,2.938,2.9367,2.9362,2.9401,2.9404,2.9417,2.9502,2.9503,2.9414,2.9417,2.9419,2.942,0,0,0,0,0,0,0,2.9343,2.9351,2.9437,2.9396,2.9393,2.9373,2.9375,2.9429,2.941,2.9379,2.9373,2.9378,2.9398,2.9413,2.9417,2.9503,2.9414,2.9418,2.9421,2.9423,2.9668,2.9672,0,0,0,0,0,0,2.9345,2.9349,2.9436,2.9437,2.9359,2.9378,2.938,2.9405,2.941,2.9407,2.9381,2.9374,2.9407,2.9412,2.9418,2.9532,2.9419,2.9423,2.9426,2.9664,2.9669,2.9673,0,0,0,0,0,0,2.9343,2.9354,2.9435,2.9392,2.9401,2.9384,2.9412,2.9407,2.9421,2.9411,2.9407,2.9399,2.9404,2.9412,2.948,2.9532,2.9425,2.9429,2.966,2.9666,2.9671,2.9764,0,0,0,0,0,0,2.934,2.9353,2.9391,2.9393,2.9403,2.9497,2.9416,2.941,2.9429,2.9421,2.9427,2.9424,2.9402,2.9473,2.9484,2.9536,2.9433,2.9655,2.9662,2.9669,2.9756,2.9773,2.9786,0,0,0,0,0,2.9336,2.9418,2.9394,2.9405,2.9451,2.95,2.9506,2.9478,2.9434,2.9472,2.9465,2.9424,2.9526,2.9481,2.9493,2.9547,2.9651,2.966,2.9669,2.975,2.9769,2.9786,0,0,0,0,0,0,2.9423,2.9417,2.9391,2.9476,2.9489,2.9487,2.9533,2.9501,2.9527,2.9518,2.9483,2.9485,2.9559,2.956,2.9511,2.9643,2.9581,2.9592,2.9638,2.9657,2.9672,2.9668,2.9436,0,0,0,0,0,2.9452,2.9493,2.9486,2.9561,2.9569,2.9551,2.9571,2.9549,2.9561,2.9566,2.9564,2.9577,2.9612,2.9635,2.9667,2.9757,2.9756,2.98,2.9815,2.9828,2.9837,2.9881,2.99,2.9702,2.9701,2.9701,0,0,2.9512,2.9514,2.9542,2.9579,2.9586,2.9628,2.9556,2.9604,2.9634,2.9574,2.9636,2.9636,2.9648,2.9727,2.9762,2.9731,2.9892,2.9839,2.9849,2.9851,2.9892,2.9911,2.9928,2.9707,2.9706,2.9705,0,0,2.9643,2.965,2.9712,2.9721,2.9733,2.972,2.9735,2.9737,2.9734,2.9797,2.9751,2.9787,2.9849,2.9858,2.9871,3.0004,2.9967,3.0016,3.0093,3.0137,3.0152,3.0166,3.021,3.0226,3.0026,3.0026,3.0026,0,2.9716,2.9777,2.9748,2.9798,2.9814,2.9762,2.9823,2.9833,2.9855,2.9867,2.9832,2.9906,2.9911,2.999,3.0022,3.0036,3.005,3.0013,3.0153,3.0166,3.0178,3.0219,3.0236,3.0031,3.0031,3.003,3.003,0,2.9865,2.9908,2.9957,2.9978,3.0,3.0056,3.0034,3.006,3.0036,3.0027,3.009,3.0095,3.0124,3.0142,3.012,3.0218,3.0197,3.0159,3.0094,3.0203,3.0241,3.0257,3.0039,3.0037,3.0036,3.0034,0,0,3.0049,3.0053,3.0071,3.0078,3.0088,3.012,3.0173,3.0202,3.0223,3.0241,3.0282,3.0335,3.0298,3.0313,3.0292,3.0331,3.0431,3.0286,3.0286,3.031,3.0535,3.0561,3.058,3.0408,3.0411,3.0414,3.0532,0,3.0175,3.0264,3.0239,3.0328,3.0366,3.0316,3.0362,3.0372,3.0365,3.0395,3.0387,3.0423,3.0374,3.0382,3.0419,3.0411,3.0475,3.0403,3.0444,3.0446,3.0438,3.0601,3.0629,3.0741,3.0548,3.055,3.0552,0,3.0332,3.0354,3.0447,3.0447,3.0462,3.0503,3.0526,3.0557,3.0567,3.0559,3.0575,3.0545,3.0596,3.0535,3.0602,3.0554,3.057,3.0568,3.0572,3.0571,3.0503,3.0601,3.0776,3.0791,3.0576,3.0574,3.0572,0,3.0452,3.0506,3.0567,3.0575,3.0578,3.0608,3.0611,3.0617,3.0635,3.0656,3.0667,3.0694,3.0707,3.0729,3.0706,3.0664,3.0776,3.0714,3.0769,3.0769,3.0791,3.0789,3.0967,3.0809,3.0808,3.0808,3.0808,0,3.0593,3.065,3.062,3.0657,3.072,3.0691,3.0753,3.075,3.0756,3.0791,3.0752,3.0786,3.0756,3.0787,3.0771,3.0827,3.0835,3.0828,3.0822,3.0829,3.0829,3.0836,3.0826,3.0813,3.0812,3.0811,3.081,0,3.0736,3.0719,3.0781,3.0779,3.0779,3.0825,3.0822,3.0856,3.0846,3.0891,3.09,3.0884,3.0918,3.0899,3.0935,3.0923,3.0995,3.0981,3.0991,3.0986,3.104,3.1034,3.1225,3.1247,3.1078,3.108,3.1081,0,3.0825,3.0867,3.0869,3.0889,3.0894,3.0928,3.0945,3.0918,3.0938,3.0952,3.0984,3.1014,3.1037,3.1094,3.1085,3.1111,3.1095,3.116,3.1098,3.1103,3.1091,3.1087,3.1089,3.1171,3.1173,3.1175,3.1176,0,3.0983,3.0971,3.0998,3.1021,3.1043,3.1061,3.1075,3.1094,3.1067,3.1091,3.1125,3.1143,3.1178,3.1208,3.123,3.1232,3.1199,3.1197,3.121,3.1215,3.1218,3.1213,3.1021,3.1191,3.119,3.1189,3.1188,3.1187,3.1098,3.1133,3.1138,3.1168,3.1176,3.119,3.122,3.1213,3.1241,3.1267,3.125,3.1289,3.1296,3.1322,3.1329,3.1358,3.1332,3.1352,3.1357,3.1361,3.1366,3.1216,3.1363,3.1363,3.1362,3.1362,3.1362,0,3.125,3.1251,3.128,3.1299,3.1323,3.1291,3.1304,3.1326,3.136,3.137,3.1393,3.143,3.1459,3.1453,3.1478,3.1503,3.1488,3.151,3.1506,3.1506,3.1391,3.1375,3.1521,3.1521,3.1521,3.1521,3.1521,3.1521,3.1332,3.1387,3.1376,3.1434,3.1435,3.1472,3.1482,3.1494,3.15,3.1544,3.1567,3.1563,3.1565,3.159,3.1614,3.1612,3.1621,3.1648,3.1639,3.1531,3.1515,3.15,3.1484,3.1651,3.1652,3.1752,3.1753,3.1753]},{"header":{"parameterUnit":"m.s-1","parameterCategory":1,"la1":30.2991,"la2":30.254,"lo1":-89.0895,"lo2":-89.0444,"dy":0.0017,"dx":0.0017,"nx":28,"ny":28,"refTime":"2023-09-16T09:00:00:Z","depth":0,"parameterNumber":3,"parameterNumberName":"V-component_of_WINDS"},"data":[0,0,0,0,0,0,0,0,0,0,0,0,0,0,0,0,0,0,0,0,0,0,0,0,0,0,0,0,0,0,0,0,0,0,0,0,0,0,0,0,0,0,0,0,0,0,0,0,0,0,0,0,0,0,0,0,0,0,0.4916,0.4918,0,0.5057,0.5059,0.506,0.509,0.5089,0.5088,0.5087,0.5237,0.5242,0.5247,0,0,0,0,0,0,0,0,0,0,0,0,0,0.4677,0.4682,0.4916,0.4918,0.492,0.5057,0.5059,0.5061,0.509,0.5089,0.5087,0.5086,0.5235,0.5241,0.5247,0,0,0,0,0,0,0,0,0,0,0,0,0,0.4796,0.4683,0.4916,0.4951,0.4955,0.5056,0.5059,0.5061,0.509,0.5089,0.5087,0.5086,0.5233,0.5241,0.5248,0.5326,0,0,0.5271,0.5274,0,0,0,0,0,0,0,0,0.4789,0.4805,0.4944,0.4949,0.4954,0.5054,0.503,0.515,0.5091,0.5039,0.5087,0.5085,0.5178,0.519,0.522,0.5333,0.534,0.5272,0.5276,0.5279,0.5282,0,0,0,0,0,0,0,0.4781,0.4799,0.4972,0.4946,0.4952,0.4961,0.4976,0.5053,0.5116,0.5044,0.5046,0.5062,0.518,0.5213,0.5224,0.5342,0.5271,0.5278,0.5283,0.5286,0.5525,0.5527,0,0,0,0,0,0,0.4766,0.4792,0.4968,0.4976,0.4866,0.4966,0.4983,0.5024,0.5115,0.5128,0.5063,0.5063,0.5201,0.5215,0.5229,0.5326,0.5279,0.5286,0.5291,0.5523,0.5525,0.5527,0,0,0,0,0,0,0.4761,0.4781,0.4962,0.4885,0.4908,0.4972,0.5017,0.5027,0.506,0.513,0.5142,0.5084,0.52,0.5219,0.5301,0.5331,0.529,0.5297,0.5521,0.5524,0.5526,0.552,0,0,0,0,0,0,0.4754,0.4779,0.4809,0.4885,0.4912,0.503,0.5019,0.5031,0.5072,0.5073,0.5153,0.5165,0.52,0.529,0.5308,0.5341,0.5302,0.5518,0.5522,0.5525,0.5518,0.5522,0.5526,0,0,0,0,0,0.4745,0.4803,0.481,0.4831,0.495,0.5032,0.5048,0.5086,0.5074,0.5105,0.5149,0.5162,0.5324,0.5298,0.5319,0.5354,0.5517,0.5521,0.5525,0.5516,0.5521,0.5526,0,0,0,0,0,0,0.4732,0.4814,0.4823,0.4907,0.4962,0.5037,0.5077,0.509,0.5152,0.515,0.5196,0.5214,0.5294,0.5332,0.5301,0.5434,0.542,0.5429,0.5406,0.5412,0.5416,0.5405,0.5309,0,0,0,0,0,0.4738,0.4796,0.4865,0.4933,0.496,0.5013,0.5051,0.5074,0.5134,0.5158,0.5209,0.5268,0.5332,0.5374,0.5437,0.5523,0.5541,0.5557,0.5561,0.5564,0.5572,0.5619,0.5627,0.5541,0.5541,0.5541,0,0,0.4753,0.4805,0.484,0.4932,0.4977,0.5037,0.5033,0.5097,0.5142,0.5169,0.5249,0.5288,0.5357,0.5441,0.5481,0.5476,0.5599,0.557,0.5572,0.5578,0.5624,0.5632,0.5639,0.5544,0.5543,0.5543,0,0,0.4811,0.4856,0.4916,0.4961,0.5028,0.5063,0.5077,0.515,0.5176,0.5257,0.5277,0.5332,0.5442,0.549,0.5528,0.56,0.5614,0.562,0.5642,0.5687,0.5693,0.57,0.5725,0.5734,0.5626,0.5626,0.5626,0,0.4822,0.4911,0.4947,0.5009,0.5048,0.5072,0.5134,0.5176,0.5262,0.5289,0.5282,0.5418,0.5467,0.5561,0.5578,0.5609,0.5627,0.5611,0.5689,0.5696,0.5702,0.5727,0.5736,0.5627,0.5627,0.5627,0.5627,0,0.492,0.4982,0.5023,0.5102,0.5146,0.5208,0.5254,0.5295,0.5314,0.5349,0.5431,0.5488,0.5563,0.5587,0.5608,0.5684,0.5679,0.568,0.5667,0.571,0.5734,0.5744,0.5627,0.5627,0.5627,0.5627,0,0,0.4976,0.5071,0.5086,0.5121,0.5196,0.5245,0.5307,0.5377,0.5411,0.5469,0.5523,0.5614,0.5614,0.5658,0.5684,0.5723,0.5775,0.5719,0.5722,0.5727,0.5862,0.5861,0.5872,0.5784,0.5786,0.5788,0.5856,0,0.5043,0.5153,0.5186,0.5279,0.5336,0.5358,0.5412,0.5464,0.5499,0.5553,0.5592,0.5655,0.5651,0.5677,0.5717,0.576,0.5803,0.5756,0.5836,0.5838,0.5818,0.5884,0.5884,0.5947,0.5866,0.5868,0.5869,0,0.5136,0.5192,0.529,0.5355,0.5381,0.5429,0.5495,0.5546,0.5605,0.5627,0.5674,0.5696,0.5763,0.5745,0.5837,0.5804,0.5839,0.5865,0.5868,0.5878,0.5857,0.5896,0.5968,0.5977,0.5884,0.5883,0.5882,0,0.5167,0.5267,0.5338,0.5367,0.5446,0.5479,0.5513,0.5571,0.561,0.5668,0.5694,0.5759,0.5795,0.5846,0.5885,0.5868,0.5974,0.596,0.5995,0.5994,0.6017,0.6016,0.6096,0.6039,0.6038,0.6038,0.6038,0,0.5238,0.5297,0.5352,0.5396,0.5463,0.5499,0.5565,0.5601,0.5651,0.5703,0.5726,0.5775,0.5823,0.5878,0.5909,0.598,0.5997,0.6017,0.6025,0.6015,0.6012,0.6039,0.6036,0.6041,0.604,0.604,0.6039,0,0.5284,0.5323,0.5402,0.5468,0.5486,0.5532,0.5589,0.5633,0.5667,0.5732,0.5749,0.5803,0.5869,0.5912,0.5997,0.6017,0.6095,0.6102,0.6074,0.6078,0.6111,0.6107,0.6211,0.6227,0.6159,0.6159,0.616,0,0.5328,0.5373,0.5443,0.5478,0.5511,0.5568,0.5607,0.5644,0.5685,0.5754,0.5789,0.5855,0.5911,0.6015,0.6062,0.6127,0.6135,0.6167,0.6145,0.6134,0.6136,0.6132,0.6137,0.6171,0.6171,0.6172,0.6172,0,0.54,0.5416,0.5471,0.5531,0.5576,0.5627,0.5677,0.5705,0.5751,0.5795,0.5861,0.5903,0.5987,0.6053,0.6121,0.6158,0.6173,0.6178,0.619,0.6181,0.6163,0.6173,0.6084,0.6176,0.6176,0.6176,0.6175,0.6175,0.5447,0.5487,0.5542,0.5601,0.5642,0.5688,0.5731,0.5769,0.5824,0.5893,0.5912,0.5981,0.6038,0.613,0.6168,0.6223,0.6219,0.6236,0.6241,0.6244,0.6244,0.6153,0.6235,0.6235,0.6235,0.6235,0.6235,0,0.552,0.5555,0.5609,0.5677,0.5724,0.573,0.5786,0.5825,0.5884,0.5934,0.5987,0.6062,0.6125,0.6176,0.6241,0.6275,0.6283,0.6291,0.6289,0.6297,0.6244,0.6227,0.6283,0.6283,0.6283,0.6283,0.6283,0.6282,0.5564,0.5633,0.5655,0.5744,0.5779,0.5844,0.5875,0.5918,0.5958,0.6039,0.6091,0.6122,0.6173,0.6241,0.63,0.6313,0.6336,0.6342,0.6357,0.6306,0.6301,0.6296,0.6281,0.6347,0.6347,0.6406,0.6406,0.6407]}]]